Regional Weather Roundup
Issued by NWS

Home | Current Version | Previous Version | Text Only | Print | Product List | Glossary Off
Versions: 1 2 3 4 5 6 7 8 9 10 11 12 13 14 15 16 17 18 19 20 21 22 23 24 25 26 27 28 29 30 31 32 33 34 35 36 37 38 39 40 41 42 43 44 45 46 47 48 49 50

000
ASUS43 KMKX 161420
RWRWI

WISCONSIN REGIONAL WEATHER ROUNDUP
NATIONAL WEATHER SERVICE MILWAUKEE/SULLIVAN WI
800 AM CST TUE JAN 16 2018

NOTE: "FAIR" INDICATES FEW OR NO CLOUDS BELOW 12,000 FEET WITH NO
SIGNIFICANT WEATHER AND/OR OBSTRUCTIONS TO VISIBILITY.

WIZ001-002-006>008-014>016-023>028-161500-
NORTHWEST WISCONSIN

CITY           SKY/WX    TMP DP  RH WIND       PRES   REMARKS
SUPERIOR ARPT  MOCLDY     0  -6  76 W6        30.66S WCI -12
ASHLAND        CLOUDY    14  10  84 NW7       30.59R WCI   4
HAYWARD        FAIR       6   2  83 CALM      30.57R
SIREN          FLURRIES   3  -2  82 NW7       30.63S WCI -10
CUMBERLAND     CLOUDY     5   1  85 NW10      30.57S WCI -10
RICE LAKE      CLOUDY     4   1  86 CALM      30.60S
CHETEK         CLOUDY     4   0  84 CALM      30.58R
LADYSMITH      FAIR       6   3  88 NW12      30.54S WCI -10
EAU CLAIRE     CLOUDY     0  -2  91 CALM      30.57R
MENOMONIE      CLOUDY     7   3  86 W8        30.60R WCI  -6
NEW RICHMOND   LGT SNOW   3  -1  82 NW10      30.62S WCI -12
OSCEOLA        CLOUDY     3  -2  81 NW9       30.68S WCI -12
$$

WIZ003>005-009-010-017-018-161500-
NORTH CENTRAL WISCONSIN

CITY           SKY/WX    TMP DP  RH WIND       PRES   REMARKS
MANITOWISH WTR LGT SNOW  14  14  99 CALM      30.46S
ARBOR VITAE    CLOUDY    14  12  91 N3        30.45S
WOODRUFF       CLOUDY    14  12  91 N3        30.45S
RHINELANDER    FAIR       9   7  92 CALM      30.45R
EAGLE RIVER    LGT SNOW   8   5  85 CALM      30.44R
LAND O LAKES   LGT SNOW  16  14  92 N8        30.46R WCI   5
PHILLIPS       FLURRIES  12  11  94 CALM      30.48R
TOMAHAWK       MOCLDY     7   5  89 CALM      30.47R
MEDFORD        MOCLDY     7   5  89 NW5       30.47R WCI  -1
MERRILL        CLOUDY    -3  -6  86 CALM      30.49R
$$

WIZ029-030-035-036-043>047-161500-
CENTRAL WISCONSIN

CITY           SKY/WX    TMP DP  RH WIND       PRES   REMARKS
WAUSAU         FAIR       5   3  91 NW8       30.46R WCI  -8
MOSINEE        PTCLDY     7   5  92 NW10      30.47S WCI  -8
MARSHFIELD     MOCLDY     8   4  83 N10       30.46R WCI  -6
STEVENS POINT  FAIR       6   4  93 N5        30.48R WCI  -3
WAUPACA        FAIR      10   6  84 NW6       30.48S WCI   0
WAUTOMA        FAIR       6   3  87 NW5       30.49R WCI  -3
WISC RAPIDS    FAIR       4   0  83 N5        30.50R WCI  -5
CAMP DOUGLAS   PTCLDY     3   0  85 W7        30.51F WCI  -9
$$

WIZ011>013-019>022-031-037>040-048>050-161500-
NORTHEAST WISCONSIN

CITY           SKY/WX    TMP DP  RH WIND       PRES   REMARKS
ANTIGO         LGT SNOW  -2  -4  88 CALM      30.44R
SHAWANO        FAIR       8   4  86 CALM      30.48S
OCONTO         MOCLDY    10   6  85 CALM      30.48R
STURGEON BAY   FAIR       5   3  91 N10       30.47R WCI -10
GREEN BAY      CLOUDY     9   5  84 CALM      30.48R
MANITOWOC      FLURRIES   9   5  84 NW13      30.45R WCI  -7
APPLETON       PTCLDY     9   3  78 N10       30.44R WCI  -6
CLINTONVILLE   FAIR       9   5  85 NW6       30.48S WCI  -1
OSHKOSH        FAIR       9   6  88 NW6       30.46R WCI  -1
$$

WIZ032>034-041-042-053>061-161500-
SOUTHWEST WISCONSIN

CITY           SKY/WX    TMP DP  RH WIND       PRES   REMARKS
LA CROSSE      FAIR       3  -2  79 N9        30.59R WCI -12
SPARTA         LGT SNOW  -3  -5  90 CALM      30.56R
VIROQUA        FAIR       5   4  94 NW6       30.50R WCI  -6
BOSCOBEL       CLOUDY     1  -2  87 CALM      30.57R
PRAIRIE DU CHI FLURRIES   7   1  76 W5        30.58R WCI  -2
PLATTEVILLE    MOCLDY     5   3  91 NW9       30.51R WCI  -9
$$

WIZ056-057-062-063-064-067-068-161500-
SOUTH CENTRAL WISCONSIN

CITY           SKY/WX    TMP DP  RH WIND       PRES   REMARKS
REEDSBURG      FAIR       6   4  91 W5        30.50R WCI  -3
BARABOO/DELLS  CLOUDY    10   6  87 NW6       30.49R WCI   0
LONE ROCK      MOCLDY     2  -1  88 W7        30.54R WCI -11
MINERAL POINT  FLURRIES   7   5  92 NW8       30.48R WCI  -6
MADISON        FLURRIES  11   7  84 NW6       30.48R WCI   1
MIDDLETON      CLOUDY    12   8  85 NW8       30.48R WCI   0
WATERTOWN      CLOUDY    13  12  95 N8        30.45R WCI   2
MONROE         LGT SNOW   9   5  85 NW9       30.45R WCI  -5
JANESVILLE     CLOUDY    16  10  79 NW14      30.45R WCI   1
$$

WIZ051-052-058>065-066-070>072-161500-
SOUTHEAST WISCONSIN

CITY           SKY/WX    TMP DP  RH WIND       PRES   REMARKS
MILWAUKEE      LGT SNOW  19  15  84 NW9       30.42R FOG     WCI   8
WAUKESHA       LGT SNOW  12  10  92 NW8       30.43R WCI   1
MILWAUKEE/TIMM LGT SNOW  18  10  73 N9        30.43R WCI   6
RACINE         LGT SNOW  18  14  84 NW9       30.42R FOG     WCI   7
BURLINGTON     FAIR      15  10  82 NW12      30.42R WCI   1
KENOSHA        LGT SNOW  18  13  80 NW9       30.41R VSB 1   WCI   7
FOND DU LAC    FAIR      12   6  77 N9        30.46S WCI   0
SHEBOYGAN      FAIR      11   6  81 N9        30.43R WCI  -2
WEST BEND      CLOUDY    14  12  92 NW8       30.42R WCI   3
JUNEAU         CLOUDY    11   9  89 N10       30.45R WCI  -2
$$

LSZ147-162-161500-
LAKE SUPERIOR

STATION/POSITION TIME  TEMP    WIND        PRES    WAVE
                       AIR SEA DIR/SP/G            HT/PER
                 (UTC) (F)     (DEG/KT/KT) (MB)    (FT/S)
DEVILS ISLAND    1400   15     350/  5/  6 1037.7S
SAXON HARBOR     1330   21     350/ 11/ 16 1034.5R
$$

LMZ867-665-643>646-161500-
LAKE MICHIGAN

STATION/POSITION TIME  TEMP    WIND        PRES    WAVE
                       AIR SEA DIR/SP/G            HT/PER
                 (UTC) (F)     (DEG/KT/KT) (MB)    (FT/S)
NORTHPORT PIER   1328    8      CALM  /  2 1031.5R
KEWAUNEE LAKESHO 1354   10     330/ 10/ 15 1030.1R
SHEBOYGAN LAKESH 1400   14     330/ 16/ 19 1031.6R
PORT WASHINGTON  1340   17     320/  8/ 14 1031.2R
MILWAUKEE LAKESH 1400   18     320/ 11/ 14   N/A
KENOSHA   LAKESH 1400   18     310/  7/ 12 1029.8
$$

TC  - TEMPERATURE IN CELSIUS
VSB - VISIBILITY IN STATUTE MILES
WCI - WIND CHILL INDEX
HX  - HEAT INDEX





USA.gov is the U.S. government's official web portal to all federal, state and local government web resources and services.